Вернуться в каталог

CZ-4 DEB

АктивенSSO
NORAD 26259·DEBRIS·🇨🇳 China

Запущен Oct 14, 1999 с Taiyuan Satellite Launch Center

Loading…

Ближайшие Пролёты (ближайшие 24 часа)

TLE

СвежийSource: Space-Track

Эпоха: Sep 14, 2026, 14:32 UTC

1 26259U 99057EV  26257.60589333  .00004881  00000-0  68196-3 0  9997
2 26259  98.3863 358.4571 0058894  90.5996 325.7632 14.76927668397405

Отслеживайте CZ-4 DEB в реальном времени с AllMySat

Download on the App Store